Location: Unspecified
(48.7670°N, 0.0000°E)
Time: 04:28:09
(UTC+00:00)

Vanguard 2 Rocket - Pass Details

Date: 01 October 2020
Orbit: 554 x 3326 km, 32.9° (Epoch: 26 October)

Event Time Altitude Azimuth Distance (km) Brightness Sun altitude
Exits shadow 04:33:50 17° 249° (WSW) 5,463 10.2 -14.9°
Maximum altitude 04:49:06 47° 188° (S) 3,987 10.0 -12.5°
Drops below altitude 10° 05:06:10 10° 122° (ESE) 5,633 11.8 -9.7°
Sets 05:10:12 0° 117° (ESE) 6,362 12.3 -9.0°
